Location: Madden
(51.3728°N, 114.3297°W)
Time: 00:14:41
(UTC+00:00)

SEEDS - Pass Details

Date: 28 April 2025
Orbit: 510 x 513 km, 97.7° (Epoch: 16 May)

Event Time Altitude Azimuth Distance (km) Brightness Sun altitude
Rises 11:25:29 0° 23° (NNE) 2,648 ? -7.5°
Reaches altitude 10° 11:27:50 10° 36° (NE) 1,755 ? -7.2°
Maximum altitude 11:31:05 27° 95° (E) 1,020 ? -6.8°
Drops below altitude 10° 11:34:20 10° 155° (SSE) 1,740 ? -6.3°
Sets 11:36:38 0° 167° (SSE) 2,621 ? -6.0°
